TJS-3

Last updated on Mon Oct 20 2025 00:02:49 GMT+0000 (Coordinated Universal Time)

1 43874U 18110A 25292.71558399 .00000058 00000+0 00000+0 0 9995 2 43874 1.9213 83.3824 0001672 100.5112 161.1320 1.00272212 25006
UTC large
Height (km)
Speed (km/s)
/
Latitude / Longitude
Inclination (degrees)
Orbital Period (minutes)
Azimuth
Elevation
Range (km)
Doppler Factor

Next 0 passes for location: London (51.5072 / 0.1276)

Sorry there are no passes over London.